Location: Unspecified
(17.6330°N, 0.0000°E)
Time: 03:53:42
(UTC+00:00)

S-56A Canister/Altair - Pass Details

Date: 03 July 2019
Orbit: 632 x 2500 km, 38.9° (Epoch: 21 July)

Event Time Altitude Azimuth Distance (km) Brightness Sun altitude
Rises 11:22:45 0° 248° (WSW) 6,098 12.0 78.9°
Reaches altitude 10° 11:26:49 10° 252° (WSW) 5,147 11.8 79.7°
Maximum altitude 11:41:36 56° 327° (NNW) 2,671 11.4 82.5°
Drops below altitude 10° 11:53:51 10° 44° (NE) 4,314 11.6 84.1°
Sets 11:56:59 0° 49° (NE) 5,085 11.8 84.4°
